Terug naar catalogus

STARLINK-30536

ActiefCommunicatieVLEO
NORAD 57993·PAYLOAD·🇺🇸 United States

Gelanceerd Oct 5, 2023 vanaf Cape Canaveral Space Force Station

Loading…

Volgende Passages (komende 24 uur)

TLE

VersSource: CelesTrak SupGP

Epoch: Sep 14, 2026, 21:01 UTC

1 57993C 23153C   26257.87618056  .00037592  00000+0  13615-2 0  2570
2 57993  43.0037  78.6038 0001825 268.9279 333.5778 15.27560591    11

Volg STARLINK-30536 in realtime met AllMySat

Download on the App Store